Weather History for Ponca City, OK

Change the Weather History Date:

Saturday, May 4, 2013

  Actual Average Record
Temperature  
Mean Temperature 42 °F -  
Max Temperature 46 °F 78 °F 100 °F (2014)
Min Temperature 37 °F 49 °F 33 °F (2005)
Degree Days  
Heating Degree Days 24    
Moisture  
Dew Point 34 °F    
Average Humidity 69    
Maximum Humidity 83    
Minimum Humidity 52    
Precipitation  
Precipitation 0.00 in - - ()
Sea Level Pressure  
Sea Level Pressure 29.99 in    
Wind  
Wind Speed 11 mph (NNW)    
Max Wind Speed 23 mph    
Max Gust Speed 31 mph    
Visibility 10 miles    
Events Rain    
Averages and records for this station are not official NWS values.
T = Trace of Precipitation, MM = Missing Value Source: NWS Daily Summary

Daily Weather History Graph

Daily Weather History Graph

Search for Another Location

Airport:

Trip Planner

Search our weather history database for the weather conditions in past years. The results will help you decide how hot, cold, wet, or windy it might be!

Date:

Astronomy

May. 04, 2013 Rise Set
Actual Time 6:31 AM CDT 8:19 PM CDT
Civil Twilight 6:03 AM CDT 8:47 PM CDT
Nautical Twilight 5:29 AM CDT 9:21 PM CDT
Astronomical Twilight 4:53 AM CDT 9:58 PM CDT
Moon 3:21 AM CDT (5/4) 3:26 PM CDT (5/4)
Length of Visible Light 14h 44m
Length of Day
13h 48m
Waning Crescent, 27% of the Moon is Illuminated
May 4
Waning Crescent
May 9
New
May 17
First Quarter
May 24
Full
May 31
Last Quarter

Hourly Weather History & Observations

Time (CDT) Temp. Windchill Dew Point Humidity Pressure Visibility Wind Dir Wind Speed Gust Speed Precip Events Conditions
12:53 AM 39.0 °F 36.8 °F 30.9 °F 73% 29.99 in 10.0 mi NW 3.5 mph - N/A   Clear
1:53 AM 39.0 °F 35.7 °F 30.9 °F 73% 29.98 in 10.0 mi NW 4.6 mph - N/A   Clear
2:53 AM 37.9 °F 32.1 °F 30.9 °F 76% 29.96 in 10.0 mi WNW 8.1 mph - N/A   Clear
3:53 AM 39.0 °F 34.0 °F 30.9 °F 73% 29.95 in 10.0 mi WNW 6.9 mph - N/A   Scattered Clouds
4:53 AM 41.0 °F 35.2 °F 30.9 °F 67% 29.94 in 10.0 mi WNW 9.2 mph 17.3 mph N/A   Overcast
5:53 AM 42.1 °F 36.1 °F 28.9 °F 60% 29.93 in 10.0 mi WNW 10.4 mph 18.4 mph N/A   Overcast
6:53 AM 43.0 °F 37.2 °F 28.9 °F 58% 29.92 in 10.0 mi WNW 10.4 mph 20.7 mph N/A   Overcast
7:53 AM 44.1 °F 37.4 °F 28.0 °F 53% 29.93 in 10.0 mi NW 13.8 mph 24.2 mph N/A   Overcast
8:53 AM 45.0 °F 38.2 °F 28.0 °F 52% 29.94 in 10.0 mi NNW 15.0 mph 23.0 mph N/A   Overcast
9:53 AM 45.0 °F 36.4 °F 30.9 °F 58% 29.95 in 10.0 mi North 23.0 mph 29.9 mph N/A   Overcast
10:53 AM 46.0 °F 38.8 °F 33.1 °F 61% 29.96 in 10.0 mi NNW 18.4 mph 25.3 mph 0.00 in Rain Light Rain
11:49 AM 44.6 °F 35.9 °F 33.8 °F 66% 29.98 in 10.0 mi North 23.0 mph 31.1 mph 0.00 in   Overcast
11:53 AM 45.0 °F 37.9 °F 34.0 °F 65% 29.98 in 10.0 mi North 16.1 mph 31.1 mph 0.00 in   Overcast
12:53 PM 46.0 °F 38.5 °F 35.1 °F 66% 29.99 in 10.0 mi North 19.6 mph 25.3 mph N/A   Overcast
1:53 PM 46.0 °F 38.5 °F 36.0 °F 68% 29.99 in 10.0 mi North 19.6 mph - N/A   Overcast
2:53 PM 46.0 °F 38.8 °F 36.0 °F 68% 30.00 in 10.0 mi North 18.4 mph - N/A   Overcast
3:53 PM 46.0 °F 39.6 °F 37.0 °F 71% 30.00 in 10.0 mi North 15.0 mph 25.3 mph N/A   Overcast
4:53 PM 46.9 °F - 37.9 °F 71% 30.00 in 10.0 mi North 13.8 mph - N/A   Overcast
5:53 PM 46.0 °F 40.6 °F 39.0 °F 76% 30.02 in 10.0 mi North 11.5 mph - N/A   Overcast
6:53 PM 46.9 °F - 39.0 °F 74% 30.02 in 10.0 mi North 12.7 mph - N/A   Overcast
7:53 PM 46.9 °F - 39.0 °F 74% 30.04 in 10.0 mi North 11.5 mph - N/A   Overcast
8:53 PM 46.0 °F 40.6 °F 39.9 °F 79% 30.05 in 10.0 mi North 11.5 mph 20.7 mph N/A   Overcast
9:53 PM 46.0 °F 41.0 °F 39.9 °F 79% 30.08 in 10.0 mi North 10.4 mph - N/A   Overcast
10:53 PM 46.0 °F 41.0 °F 41.0 °F 83% 30.09 in 10.0 mi North 10.4 mph - N/A   Overcast
11:53 PM 46.0 °F 40.2 °F 39.9 °F 79% 30.09 in 10.0 mi North 12.7 mph - N/A   Overcast